STARLINK-32425

Last updated on Mon Oct 21 2024 00:02:04 GMT+0000 (Coordinated Universal Time)

1 61216U 24171S 24294.00001157 .00021418 00000+0 64727-3 0 9990 2 61216 53.1574 153.3398 0000982 74.5087 37.3661 15.34201682 5918

Satellite not in orbit

STARLINK-32425